Weather in Van

Turkey     38°30′28″N   43°22′36″E
temp.,
°C
wind,
m/s
gust,
m/s
humid.,
%
clouds,
%
prec.,
mm/h
press.,
hPa
HPBL,
m
24 january, mon
mon2400:00−14se43643 0.0 102521
03:00−14se43690 0.0 102517
06:00−16se327831 0.0 102811
09:00−12se228114 0.0 102732
12:00−5se027220 0.0 1020342
15:00−3se127927 0.0 1017154
18:00−12se328510 0.0 102612
21:00−13se438223 0.0 102818
25 january, tue
tue2500:00−13ese438070 0.0 102920
03:00−13ese3285100 0.0 103020
06:00−15ese438650 0.0 103216
09:00−11ese33859 0.0 103043
12:00−5s11745 0.0 1024256
15:00−4nnw01805 0.0 1022206
18:00−12ese32865 0.0 102811
21:00−13se438694 0.0 103017
26 january, wed
wed2600:00−14se3383100 0.0 103016
03:00−16se43832 0.0 103116
06:00−16ese43835 0.0 103017
09:00−12ese33802 0.0 102739
12:00−5ese12670 0.0 1019215
15:00−4e12751 0.0 1015118
18:00−12ese43805 0.0 102114
21:00−12ese437925 0.0 102021
27 january, thu
thu2700:00−13ese438097 0.0 102021
03:00−12ese3381100 0.0 101717
06:00−12ese3383100 0.0 101623
09:00−8ese3288100 0.1 101251
12:00−5w0178100 0.0 1010357
15:00−4w2287100 0.1 1010334
18:00−7w1198100 0.8 101416
21:00−8ssw1197100 1.7 101611
28 january, fri
fri2800:00−8s2296100 1.5 101987
03:00−10se2295100 2.3 102342
06:00−12se2293100 0.4 102625
09:00−11se228646 0.5 102845
12:00−7ssw117212 0.0 1024335
15:00−6ssw0173100 0.0 1023342
18:00−12ese228798 0.0 102810
21:00−13se329293 0.0 103017